Probability
1 0 0 0 0 0 0 0 0 0 0 0 0 0 0 0 0 0 0 0 0 0 0 0 0 0 0 0 0 0 0 0 0 0 0 0 0 0 0 0 0 1 2
2 1 0 0 0 0 0 0 0 0 0 0 0 0 0 0 0 0 0 0 0 0 0 0 0 0 0 0 0 0 0 0 0 0 0 0 0 0 0 0 0 1 2
2 1 1 1 0 0 0 0 0 0 0 0 0 0 0 0 0 0 0 0 0 0 0 0 0 0 0 0 0 0 0 0 0 0 0 0 0 0 0 0 0 0 1
3 3 2 2 1 0 0 0 0 0 0 0 0 0 0 0 0 0 0 0 0 0 0 0 0 0 0 0 0 0 0 0 0 0 0 0 0 0 0 0 0 0 0
4 4 3 3 1 1 1 0 0 0 0 0 0 0 0 0 0 0 0 0 0 0 0 0 0 0 0 0 0 0 0 0 0 0 0 0 0 0 0 0 0 0 0
4 4 3 3 3 3 2 0 0 0 0 0 1 1 1 1 1 0 0 0 0 0 0 0 0 0 0 0 0 0 0 0 0 0 0 0 0 0 0 0 0 0 0
2 2 3 4 5 4 2 0 0 0 0 1 2 2 2 1 0 0 0 0 0 0 0 0 0 0 0 0 0 0 0 0 0 0 0 0 0 0 0 0 0 0 0
0 1 2 3 4 4 3 1 0 0 1 1 3 3 2 1 0 0 0 0 0 0 0 0 0 0 0 0 0 0 0 0 0 0 0 0 0 1 1 1 0 0 0
0 0 1 1 1 2 2 1 0 1 2 3 3 3 3 1 0 0 0 0 0 0 0 0 0 0 0 0 0 0 0 0 0 0 0 0 1 1 2 2 1 0 0
0 0 0 0 0 1 1 0 0 1 2 3 3 3 3 2 1 0 0 0 0 0 0 0 0 0 0 0 0 0 0 0 0 0 0 0 1 2 2 2 1 0 0
0 0 0 0 0 0 0 0 0 1 2 2 2 2 3 3 2 1 0 0 0 0 0 0 0 0 0 0 0 0 0 0 0 0 0 0 1 2 1 1 0 0 0
0 0 0 0 0 0 0 0 0 0 1 1 1 1 1 2 3 2 1 0 0 0 0 0 0 0 0 0 0 0 0 0 0 0 0 0 0 0 0 0 0 0 0
0 0 0 0 0 0 0 0 0 0 0 0 0 0 0 2 4 3 1 0 0 0 0 0 0 0 0 0 0 0 0 0 0 0 0 0 0 0 0 0 0 0 0
0 0 0 0 0 0 0 0 0 0 0 0 0 0 0 1 4 4 2 1 0 0 0 0 0 0 0 0 0 0 0 0 0 0 0 0 0 0 0 0 0 0 0
0 0 0 0 0 0 1 2 1 1 1 1 1 1 0 1 3 3 2 1 0 0 0 0 0 0 0 0 0 0 0 0 0 0 0 0 0 0 0 0 0 0 0
0 0 0 0 0 1 2 3 3 2 2 2 2 1 0 1 1 1 1 0 0 0 0 0 0 0 0 0 0 0 0 0 0 0 0 0 0 0 0 0 0 0 0
0 0 0 0 0 1 2 3 3 3 3 3 2 1 1 1 1 0 0 0 0 0 0 0 0 0 0 0 0 0 0 0 0 0 0 0 0 0 0 0 0 0 0
0 0 0 0 0 0 1 2 3 3 3 3 2 2 2 2 1 0 0 0 0 0 0 0 0 0 0 0 0 0 0 0 0 0 0 0 0 0 0 0 0 0 0
0 0 0 0 0 0 0 1 1 2 2 2 2 2 3 3 2 1 0 0 0 0 0 0 0 0 0 0 0 0 0 0 0 0 0 0 0 0 0 0 0 0 0
0 0 0 0 0 0 0 0 0 1 1 1 1 1 1 2 2 2 1 1 0 0 0 0 0 0 0 0 0 0 0 0 0 0 0 0 0 0 0 0 0 0 0
0 0 0 0 0 0 0 0 0 1 2 2 2 1 0 1 1 2 2 1 1 1 1 1 0 0 0 0 0 0 0 0 0 0 0 0 0 0 0 0 0 0 0
0 0 0 0 0 0 0 0 0 1 2 3 3 2 1 1 0 1 1 1 1 1 2 1 1 1 0 0 0 0 0 0 0 0 0 0 0 0 0 0 0 0 0
0 0 0 0 0 0 0 0 0 1 2 3 3 3 3 2 1 1 0 0 0 1 1 1 1 1 0 0 0 0 0 0 0 0 0 0 0 0 0 0 0 0 0
0 0 0 0 0 0 0 0 0 0 1 3 3 3 3 3 3 2 1 1 1 1 0 0 1 1 0 0 0 0 0 0 0 0 0 0 0 0 0 0 0 0 0
0 0 0 0 0 0 0 0 0 0 1 2 3 3 3 3 3 3 2 2 2 2 1 0 0 0 0 0 0 0 0 0 0 0 0 0 0 0 0 0 0 0 0
0 0 0 0 0 0 0 0 0 0 0 1 3 3 3 3 3 3 3 3 3 3 2 1 0 0 0 0 0 0 0 0 0 0 0 0 0 0 0 0 0 0 0
Wind_Speed
2 2 2 2 3 2 2 2 2 4 4 4 4 4 5 5 4 4 4 8 8 8 7 7 7 6 6 5 5 5 5 5 5 6 6 5 5 5 5 5 5 4 4
2 2 2 3 3 2 3 2 3 3 3 3 4 4 4 4 4 4 4 6 9 9 9 8 7 7 7 7 6 5 5 5 5 6 6 6 6 6 5 5 5 5 5
2 2 2 2 2 2 3 3 3 3 3 3 3 4 4 4 4 4 4 3 5 8 10 9 8 8 8 7 7 7 6 6 6 5 5 5 5 5 5 5 5 5 5
3 3 2 2 2 2 2 2 2 2 3 3 3 3 3 3 4 4 4 4 4 4 7 9 9 9 8 7 7 7 6 6 5 5 5 5 5 5 5 5 5 5 5
2 2 2 2 2 1 1 2 2 2 3 3 3 3 3 3 3 3 4 4 4 4 4 6 7 7 8 7 7 6 5 5 5 5 5 4 4 4 5 4 4 4 4
1 2 2 2 2 1 1 1 2 2 2 2 3 3 3 3 3 3 3 3 4 4 4 3 3 4 7 7 6 5 5 4 4 4 4 4 4 4 4 4 4 4 4
1 2 1 2 1 1 1 1 1 2 2 1 2 2 3 3 3 3 2 2 3 4 3 3 3 2 3 5 5 5 5 4 4 4 3 3 3 3 4 4 4 4 4
1 1 1 1 2 1 1 2 1 0 1 0 0 0 1 2 2 2 2 1 2 3 3 3 3 3 2 2 4 5 5 5 4 4 4 3 2 2 3 4 4 4 4
1 1 1 1 1 1 2 2 1 1 0 0 1 2 1 1 1 2 2 1 2 2 2 2 3 3 3 3 3 4 6 6 5 5 5 4 3 3 4 3 4 3 3
1 1 1 1 1 1 2 2 1 1 1 1 0 1 2 1 1 1 1 1 2 2 2 2 2 3 3 3 4 6 6 6 6 5 6 6 4 3 3 3 2 2 2
1 1 1 2 2 2 2 1 1 2 1 1 1 1 1 1 2 1 0 0 1 1 1 2 1 2 2 3 3 6 7 6 6 6 5 5 5 3 2 2 2 1 1
1 2 1 2 2 2 2 2 2 2 2 2 2 1 1 1 1 1 1 1 0 1 1 1 1 1 2 2 4 6 6 6 6 6 6 5 4 3 2 1 1 1 1
1 2 2 2 2 2 2 2 2 2 2 2 2 2 2 2 1 1 1 1 1 0 0 0 1 1 1 1 2 4 4 5 5 5 5 5 4 3 2 1 1 0 1
1 2 2 2 2 2 2 2 2 2 2 2 2 2 2 2 2 1 1 1 1 1 1 0 1 1 1 1 3 3 2 3 4 4 4 5 4 3 2 2 1 1 0
1 2 2 2 2 2 2 2 2 2 2 2 2 2 2 1 1 1 2 2 2 2 1 1 0 1 1 1 2 1 1 4 3 4 4 4 5 4 3 2 2 2 2
1 2 2 2 3 3 2 2 2 2 2 2 1 2 1 1 1 1 2 2 2 3 2 1 1 0 1 1 1 2 2 2 2 3 3 4 4 4 3 2 2 1 1
2 2 2 2 3 3 3 3 3 3 3 3 2 2 2 2 1 2 2 2 2 2 2 1 1 1 1 1 0 1 1 1 1 2 3 3 3 3 3 2 1 1 0
2 2 2 3 3 3 3 3 4 4 4 3 3 3 3 2 2 2 2 3 2 2 2 2 1 1 2 1 1 2 1 1 1 2 2 3 3 3 3 3 2 1 1
3 3 3 3 3 3 3 3 3 4 4 4 4 4 3 3 3 2 3 2 2 1 2 2 1 1 2 1 1 2 2 2 2 0 0 1 2 2 3 3 2 1 1
3 3 3 3 3 3 3 3 3 4 3 3 3 3 3 3 3 3 3 3 2 2 2 2 2 2 2 2 2 2 2 2 2 1 1 1 1 1 2 2 2 1 1
2 2 2 3 2 3 2 2 3 4 4 3 3 4 3 2 2 3 3 3 3 3 3 3 3 3 3 3 3 3 3 2 2 2 2 2 2 2 2 2 2 2 1
2 2 2 2 2 2 1 2 3 4 4 4 4 4 4 4 3 4 4 4 4 4 4 3 3 4 4 4 3 3 3 3 3 2 3 3 3 3 2 2 0 1 1
1 2 2 2 3 1 2 3 4 5 4 4 5 4 3 3 4 4 5 5 5 5 5 5 5 4 4 3 4 5 4 4 3 1 3 3 3 3 2 1 1 1 2
2 2 2 3 3 1 1 2 4 6 4 4 5 5 5 4 4 4 4 5 5 5 5 6 5 4 4 3 4 4 4 4 4 2 3 4 3 3 2 2 3 3 3
2 2 3 3 3 3 2 2 4 4 4 4 4 5 5 5 2 4 5 5 4 4 3 3 3 1 1 1 3 3 4 4 4 3 3 3 3 3 3 3 3 5 5
3 3 3 3 4 3 1 3 5 4 4 3 3 3 3 4 3 5 6 5 5 4 4 4 4 4 5 4 5 5 4 5 4 3 3 3 3 2 3 2 2 3 4
Wind_Direction
84 84 81 76 66 66 75 60 59 62 55 47 42 43 53 53 53 57 72 65 57 60 67 73 75 73 74 79 83 82 78 71 68 69 62 57 52 52 51 42 48 64 74
86 78 73 69 62 57 56 56 66 65 57 52 47 46 44 50 53 59 60 76 69 58 56 62 70 69 68 69 73 78 77 75 71 64 57 52 48 49 49 47 52 64 71
85 80 75 78 75 71 72 66 70 64 65 63 58 51 51 42 46 58 58 59 76 74 60 53 57 63 63 64 69 72 73 70 65 61 59 54 47 45 47 50 54 60 69
89 86 88 85 80 75 81 85 71 73 71 63 60 57 60 58 53 53 60 61 61 66 74 59 52 54 55 57 64 67 67 61 54 54 52 49 46 45 47 49 61 65 69
92 100 94 101 102 94 85 84 72 64 71 68 69 66 61 58 57 58 63 58 61 60 64 76 65 53 48 49 55 59 60 56 51 50 50 47 43 46 49 51 66 70 73
101 103 120 120 107 100 89 90 92 88 83 77 73 71 67 67 61 53 52 56 49 49 46 49 69 80 61 45 43 45 48 52 51 51 53 49 44 45 47 49 67 70 77
127 118 133 121 108 97 104 94 95 115 109 94 100 97 103 81 66 68 51 50 57 50 44 45 42 40 79 75 44 32 27 37 46 47 46 39 38 50 55 57 68 68 72
133 136 136 132 128 129 137 124 127 119 116 122 22 186 142 134 95 68 61 55 49 50 39 37 38 38 30 46 65 44 26 20 20 29 20 18 40 80 76 68 73 70 68
162 157 152 148 148 163 151 164 177 179 185 225 336 323 306 56 86 116 70 64 52 41 34 25 21 23 25 27 44 55 33 21 17 20 15 32 61 86 85 73 68 65 67
201 180 177 184 174 172 168 190 192 212 230 226 219 305 317 23 272 129 136 89 54 33 33 22 15 18 20 29 42 36 33 26 24 22 26 36 52 72 77 79 69 63 72
206 197 212 215 204 192 195 203 214 243 246 274 262 256 279 229 252 270 233 138 75 44 36 14 15 17 19 28 31 41 36 28 23 19 20 23 33 47 63 62 54 60 115
199 194 218 234 231 213 204 213 228 236 258 273 266 239 250 262 258 260 258 238 341 29 20 29 29 38 38 36 35 39 30 26 20 16 13 10 9 11 25 34 38 73 123
204 206 209 225 235 229 221 219 228 237 240 245 263 271 270 281 273 265 250 263 296 280 217 166 81 54 37 28 43 25 36 25 14 10 9 8 5 359 357 1 12 41 146
229 217 213 220 218 219 225 222 241 230 243 241 253 257 259 263 256 241 240 248 260 240 216 185 115 64 18 17 25 315 43 39 15 8 8 10 7 3 1 360 353 335 235
238 233 216 220 214 214 227 222 234 229 236 247 248 245 252 245 236 240 231 243 268 269 264 187 220 60 338 2 353 307 348 51 23 15 18 18 17 14 16 19 21 24 66
209 222 224 217 216 208 214 218 231 230 228 228 252 248 238 234 218 224 226 245 269 273 277 279 260 222 348 318 344 311 7 57 40 22 18 16 15 14 9 13 26 41 55
225 228 223 218 215 210 208 210 228 221 227 220 216 219 219 218 217 218 224 237 247 257 258 265 253 203 229 256 274 295 308 304 62 50 14 6 6 4 2 357 0 23 36
236 237 229 225 217 222 221 219 226 228 230 227 220 217 217 198 219 221 224 232 234 240 237 241 233 218 229 246 269 274 285 298 315 64 11 346 344 345 350 348 333 306 278
228 228 232 234 221 222 231 234 232 230 229 229 224 221 215 209 220 214 219 226 227 214 224 224 228 236 235 224 252 262 271 278 285 148 254 299 340 345 345 342 337 318 283
242 235 238 242 233 227 232 234 234 232 229 227 225 224 220 221 230 227 221 224 222 213 212 212 214 217 221 229 244 246 247 251 271 273 291 293 269 264 288 305 311 294 255
251 247 247 248 239 233 236 245 242 239 235 230 226 225 220 228 265 257 248 230 218 217 215 219 219 224 221 218 231 239 250 252 258 273 276 268 257 261 246 236 248 275 264
247 251 248 246 239 233 167 241 261 243 240 237 232 228 215 209 220 231 251 254 250 235 229 229 234 237 239 231 229 238 244 250 254 242 264 264 264 268 265 264 51 303 263
225 244 244 242 246 224 163 217 250 261 245 244 241 231 225 220 220 226 217 220 234 251 257 253 249 253 251 238 229 234 240 254 267 261 264 262 250 262 266 250 129 228 253
227 240 252 254 255 246 194 228 243 254 252 247 244 241 236 232 224 231 226 224 228 226 232 242 252 259 264 248 242 250 249 250 260 233 240 267 260 265 267 248 177 212 238
243 249 253 260 259 240 190 231 248 252 256 255 250 249 247 245 221 227 229 227 229 229 217 243 288 287 321 285 260 234 229 234 245 235 217 263 270 276 268 248 200 197 221
245 255 255 261 268 269 202 226 252 258 259 261 260 258 250 257 230 223 233 232 235 233 222 209 216 211 216 209 230 240 238 244 252 244 198 242 258 266 265 245 248 229 225